Miscellaneous Local Product
Issued by NWS Hastings, NE

Home | Current Version | Previous Version | Graphics & Text | Print | Product List | Glossary On
Versions: 1 2 3 4 5 6 7 8 9 10 11 12 13 14 15 16 17 18 19 20 21 22 23 24 25 26 27 28 29 30 31 32 33 34 35 36 37 38 39 40 41 42 43 44 45 46 47 48 49 50
262
AXUS43 KGID 190202
MISGRI

GID CWA HOURLY WEATHER ROUNDUP
NATIONAL WEATHER SERVICE HASTINGS NE
900 PM CDT MON SEP 18 2017

NOTE: "FAIR" INDICATES FEW OR NO CLOUDS BELOW 12,000 FEET WITH NO
SIGNIFICANT WEATHER AND/OR OBSTRUCTIONS TO VISIBILITY.

...SOUTH CENTRAL NEBRASKA...

CITY           SKY/WX    TMP DP  RH WIND       PRES   REMARKS
GRAND ISLAND   CLEAR     67  65  93 SE6       29.89R
HASTINGS       CLEAR     71  63  75 SE7       29.89R
KEARNEY        CLEAR     69  62  78 SE5       29.89R
ORD            CLEAR     60  57  89 S3        29.86R
YORK           CLEAR     66  66 100 CALM      29.89R
AURORA         CLEAR     64  63  98 SE6       29.88R
LEXINGTON      CLEAR     69  60  72 SE7       29.89R
HOLDREGE       CLEAR     64  57  79 E6        29.89R
HEBRON         CLEAR     69  65  87 CALM      29.88R

...NEBRASKA PANHANDLE...

CITY           SKY/WX    TMP DP  RH WIND       PRES   REMARKS
CHADRON        CLEAR     72  38  29 S15       29.74F
ALLIANCE       CLEAR     59  47  64 SE8       29.82S
SCOTTSBLUFF    CLOUDY    62  51  67 E8        29.81S
SIDNEY         CLEAR     60  38  43 S9        29.88S

...WESTERN AND NORTH CENTRAL NEBRASKA...

CITY           SKY/WX    TMP DP  RH WIND       PRES   REMARKS
VALENTINE      PTCLDY    69  51  52 SE10      29.81R
AINSWORTH      CLEAR     66  59  78 S10       29.84R
ONEILL         CLEAR     66  62  89 S5        29.85R
BROKEN BOW     CLEAR     64  59  83 SE6       29.87S
IMPERIAL       CLEAR     63  45  51 SE9       29.87S
NORTH PLATTE   CLEAR     62  56  80 E9        29.87R
MCCOOK         CLEAR     69  57  65 E7        29.87R

...EASTERN NEBRASKA...

CITY           SKY/WX    TMP DP  RH WIND       PRES   REMARKS
NORFOLK        CLEAR     64  64 100 SE7       29.87R
SO SIOUX CITY  MOCLDY    69  67  93 SE8       29.88R
TEKAMAH        PTCLDY    67  65  93 SE6       29.89R
COLUMBUS       CLEAR     67  65  93 SE5       29.88R
ALBION         CLEAR     65  64  97 CALM      29.88R FOG
OMAHA EPPLEY   MOCLDY    71  65  81 SE9       29.90R
OFFUTT AFB     CLEAR     69  66  91 E7        29.89R
MILLARD        PTCLDY    72  69  90 SE3       29.90R
LINCOLN        CLEAR     68  64  87 SE5       29.89R
NEBRASKA CITY  CLEAR     70  70 100 SE6       29.90R
BEATRICE       CLEAR     70  65  83 E5        29.88S
FALLS CITY     CLEAR     69  66  90 SE5       29.89R

...NORTHERN KANSAS...

CITY           SKY/WX    TMP DP  RH WIND       PRES   REMARKS
GOODLAND       CLEAR     61  49  64 SE6       29.90R
HILL CITY      CLEAR     74  58  57 NE9       29.86R
NORTON         CLEAR     68  54  60 E3        29.87R
PHILLIPSBURG   PTCLDY    72  59  64 NE8       29.86R
SMITH CENTER   CLEAR     68  57  68 E9        29.87R
HAYS           PTCLDY    73  59  61 S8        29.85R
RUSSELL        PTCLDY    74  60  61 SE9       29.84R
CONCORDIA      PTCLDY    70  66  87 CALM      29.87R
SALINA         CLOUDY    77  65  66 SE10      29.85F
TOPEKA         PTCLDY    71  70  96 E6        29.91R



USA.gov is the U.S. government's official web portal to all federal, state and local government web resources and services.